Location: Ergnies
(50.0854°N, 2.0375°E)
Time: 15:57:12
(UTC+00:00)

BREEZE-M DEB (TANK) - Pass Details

Date: 14 January 2026
Orbit: 325 x 14637 km, 49.5° (Epoch: 17 February)

Event Time Altitude Azimuth Distance (km) Brightness Sun altitude
Exits shadow 05:27:04 61° 116° (ESE) 461 3.1 -21.5°
Drops below altitude 10° 05:30:27 10° 99° (E) 2,064 7.4 -21.0°
Sets 05:34:05 0° 98° (E) 3,892 9.3 -20.4°
